TimeMST,TemperatureF,Dew PointF,Humidity,Sea Level PressureIn,VisibilityMPH,Wind Direction,Wind SpeedMPH,Gust SpeedMPH,PrecipitationIn,Events,Conditions,WindDirDegrees,DateUTC
12:53 AM,88.0,44.1,22,29.72,10.0,Calm,Calm,-,N/A,,Clear,0,2013-07-03 07:53:00
1:53 AM,87.1,42.1,21,29.72,10.0,West,3.5,-,N/A,,Clear,270,2013-07-03 08:53:00
2:53 AM,86.0,43.0,22,29.72,10.0,NW,5.8,-,N/A,,Clear,310,2013-07-03 09:53:00
3:53 AM,84.9,45.0,25,29.74,10.0,NW,6.9,-,N/A,,Clear,320,2013-07-03 10:53:00
4:53 AM,82.0,46.9,29,29.75,10.0,Calm,Calm,-,N/A,,Clear,0,2013-07-03 11:53:00
5:53 AM,80.1,45.0,29,29.77,10.0,Calm,Calm,-,N/A,,Clear,0,2013-07-03 12:53:00
6:53 AM,84.0,43.0,24,29.78,10.0,SE,4.6,-,N/A,,Clear,140,2013-07-03 13:53:00
7:53 AM,87.1,48.0,26,29.80,10.0,NNW,5.8,-,N/A,,Clear,330,2013-07-03 14:53:00
8:53 AM,90.0,46.9,23,29.79,10.0,Variable,4.6,-,N/A,,Clear,0,2013-07-03 15:53:00
9:53 AM,93.0,46.0,20,29.78,10.0,North,8.1,-,N/A,,Clear,360,2013-07-03 16:53:00
10:53 AM,95.0,43.0,17,29.76,10.0,Variable,4.6,-,N/A,,Clear,0,2013-07-03 17:53:00
11:53 AM,98.1,39.0,13,29.74,10.0,NNE,5.8,-,N/A,,Clear,20,2013-07-03 18:53:00
12:53 PM,102.9,34.0,9,29.71,10.0,NE,9.2,-,N/A,,Clear,40,2013-07-03 19:53:00
1:53 PM,102.9,32.0,8,29.69,10.0,Variable,4.6,-,N/A,,Clear,0,2013-07-03 20:53:00
2:53 PM,105.1,32.0,8,29.65,10.0,North,8.1,-,N/A,,Clear,350,2013-07-03 21:53:00
3:53 PM,105.1,30.9,8,29.62,10.0,East,9.2,16.1,N/A,,Clear,80,2013-07-03 22:53:00
4:53 PM,104.0,32.0,8,29.60,10.0,ENE,8.1,-,N/A,,Clear,60,2013-07-03 23:53:00
5:53 PM,100.9,36.0,11,29.62,10.0,NNW,12.7,21.9,N/A,,Clear,340,2013-07-04 00:53:00
6:53 PM,99.0,37.0,12,29.61,10.0,West,8.1,-,N/A,,Clear,270,2013-07-04 01:53:00
7:53 PM,97.0,37.9,13,29.62,10.0,West,5.8,-,N/A,,Clear,270,2013-07-04 02:53:00
8:53 PM,95.0,39.0,14,29.63,10.0,West,3.5,-,N/A,,Clear,260,2013-07-04 03:53:00
9:53 PM,90.0,41.0,18,29.65,10.0,Calm,Calm,-,N/A,,Clear,0,2013-07-04 04:53:00
10:53 PM,91.9,39.0,16,29.64,10.0,SSW,3.5,-,N/A,,Clear,210,2013-07-04 05:53:00
11:53 PM,91.0,39.0,16,29.65,10.0,NW,4.6,-,N/A,,Clear,310,2013-07-04 06:53:00